User: anonymous   Login
Location: Unspecified
(0.0000°N, 0.0000°E)
Time: 12:50:23
(UTC+00:00)
Language:

SO-67 - Orbit

View from above orbital plane
View from above orbital plane
View from above satellite
View from above satellite

Ground track
Ground track

The orbit data is extracted from the following two-line orbital elements,

1 35870U 09049F   21016.06129024  .00014586  00000-0  10977-3 0  9990
2 35870  97.0008  49.5292 0001472 119.8713 297.7099 15.72636161637472
Epoch (UTC): 16 January 2021 01:28:15
Eccentricity: 0.0001472
inclination: 97.0008°
perigee height: 350 km
apogee height: 352 km
right ascension of ascending node: 49.5292°
argument of perigee: 119.8713°
revolutions per day: 15.72636161
mean anomaly at epoch: 297.7099°
orbit number at epoch: 63747

The dashed part of the orbit path shows where the satellite is in the earth's shadow,  

DLR